Regional Weather Roundup
Issued by NWS Wakefield, VA

Home | Current Version | Previous Version | Graphics & Text | Print | Product List | Glossary On
Versions: 1 2 3 4 5 6 7 8 9 10 11 12 13 14 15 16 17 18 19 20 21 22 23 24 25 26 27 28
000
ASUS41 KAKQ 160515
RWRAKQ

REGIONAL WEATHER ROUNDUP
NATIONAL WEATHER SERVICE WAKEFIELD VA
100 AM EDT MON OCT 16 2017

Note: "fair" indicates few or no clouds below 12,000 feet with no
significant weather and/or obstructions to visibility. * = Denotes
station may not report precipitation (e.g., rain,snow,etc.),
thunder or fog.

VAZ042-051-052>054-056-160600-
NORTHERN VIRGINIA

CITY           SKY/WX    TMP DP  RH WIND       PRES   REMARKS
WASH NATIONAL  CLOUDY    73  68  84 W7        29.90R
DULLES         CLOUDY    71  63  75 NW17G25   29.92R
FORT BELVOIR   CLOUDY    71  66  85 W5        29.90S
QUANTICO       LGT RAIN  74  67  78 W6        29.92R
FREDERICKSBRG* CLOUDY    72  66  81 SW8       29.89R
STAFFORD*      DRIZZLE   72  67  85 W6        29.96R
WARRENTON      CLOUDY    72  62  72 NW7       29.92R
CULPEPER*      LGT RAIN  71  65  81 N6        29.93R
MANASSAS*      CLOUDY    69  66  90 W6        29.92R
LEESBURG*      DRIZZLE   68  66  94 N10       29.93R
WINCHESTER     LGT RAIN  63  59  88 NW6       29.96R
FRONT ROYAL*   CLOUDY    64  63  94 S3        29.95R
LURAY*         CLOUDY    68  63  83 N5        29.96R
$$

VAZ048-049-060>072-079>083-160600-
CENTRAL AND SOUTH CENTRAL VIRGINIA

CITY           SKY/WX    TMP DP  RH WIND       PRES   REMARKS
RICHMOND       MOCLDY    71  67  87 SW12      29.93R
CHESTERFIELD*  NOT AVBL
PETERSBURG*    PTCLDY    70  65  84 SW7       29.95R
HANOVER        CLOUDY    73  66  78 SW8       29.92S
TAPPAHANNOCK*  CLOUDY    73  64  75 SW7       29.92S
QUINTON*       MOCLDY    71  68  89 SW3       29.92S
CHARLOTTSVILLE CLOUDY    71  66  84 N3        29.92R
GORDONSVILLE*  CLOUDY    71  67  88 SW5       29.91R
ORANGE*        CLOUDY    70  64  83 CALM      29.91R
LOUISA*        CLOUDY    70  64  83 S5        29.91S
BUMPASS*       CLOUDY    71  67  89 SW8       29.91S
FARMVILLE*     CLOUDY    73  69  88 SW7       29.93S
CREWE*         MOCLDY    70  70 100 S3        29.95S
FORT PICKETT*  MOCLDY    69  69 100 SW9       29.96S
CHASE CITY*    MOCLDY    70  70 100 SW3       29.97F
CLARKSVILLE*   FAIR      70  68  94 SW8       29.97S
SOUTH HILL*    CLEAR     69  67  92 SW6       30.03S
LAWRENCEVILLE* FAIR      69  65  88 SW6       29.97S
EMPORIA*       CLEAR     68  63  83 CALM      29.98S
$$

VAZ088>098-160600-
SOUTHEAST VIRGINIA

CITY           SKY/WX    TMP DP  RH WIND       PRES   REMARKS
NORFOLK        CLEAR     71  66  84 SW12      29.95S
VIRGINIA BEACH CLEAR     71  65  81 SW13      29.95S
NORFOLK NAVAL  CLEAR     73  64  73 SW8       29.96F
WEST POINT*    CLEAR     72  65  78 SW7       29.94S
SALUDA*        FAIR      71  66  84 SW9       29.92S
NEWPORT NEWS   CLEAR     71  64  78 SW13      29.94F
LANGLEY AFB    CLEAR     72  64  77 SW10      29.94S
FORT EUSTIS    CLEAR     71  65  81 S5        29.92S
WILLIAMSBURG*  CLEAR     72  64  78 SW5       29.95S
HR EXEC AP*    NOT AVBL
FRANKLIN*      CLEAR     70  63  79 SW7       29.97S
US460-WAKEFLD  CLEAR     70  65  84 SW6       29.94F
$$

VAZ020-022-025-037-045-160600-
WEST CENTRAL AND SOUTHWEST VIRGINIA

CITY           SKY/WX    TMP DP  RH WIND       PRES   REMARKS
STAUNTON*      CLOUDY    69  60  72 N3        29.97R
WAYNESBORO*    CLOUDY    70  61  72 W5        29.96R
HOT SPRINGS VA RAIN      56  56 100 NW13G18   30.07S VSB 1/4
LYNCHBURG      CLOUDY    69  65  86 S10       29.95F
DANVILLE       PTCLDY    67  66  97 SW3       29.97F
SOUTH BOSTON*  MOCLDY    69  68  95 S3        29.96F
MARTINSVILLE   CLOUDY    69  65  87 SW3       30.00F
ROANOKE        LGT RAIN  71  64  78 W14       29.99S
BLACKSBURG     HVY RAIN  65  64  99 W6        30.06S
DUBLIN*        RAIN      65  64  94 NW12G21   30.06S
MARION*        DRIZZLE   63  59  87 NW9       30.10R
HILLSVILLE*    RAIN      65  61  87 CALM      30.05S
RICHLANDS*     DRIZZLE   56  41  58 N8        30.13R
WISE*          NOT AVBL
ABINGDON*      RAIN      62  60  93 NW6       30.09R
$$

MDZ021>025-VAZ099-100-160600-
SOUTHERN MARYLAND AND THE DELMARVA PENINSULA

CITY           SKY/WX    TMP DP  RH WIND       PRES   REMARKS
PATUXENT RIVER PTCLDY    73  67  81 SW13      29.88R
BAY BRIDGE APT CLOUDY    73  66  78 W13       29.88R
LEONARDTOWN    NOT AVBL
DOVER          MOCLDY    72  66  83 SW13      29.85R
GEORGETOWN     CLEAR     72  66  81 SW12      29.88S
EASTON         PTCLDY    74  66  76 W8G16     29.91R
CAMBRIDGE      CLOUDY    73  68  83 S8        29.87S
SALISBURY      CLEAR     72  66  81 SW14      29.89F
OCEAN CITY     CLEAR     71  66  84 SW13      29.90S
WALLOPS ISLAND CLEAR     73  65  75 SW14      29.91F
ACCOMACK*      CLEAR     73  66  79 SW12G18   29.92S
$$

NCZ012>017-030>032-160600-
NORTH CENTRAL AND EASTERN NORTH CAROLINA

CITY           SKY/WX    TMP DP  RH WIND       PRES   REMARKS
ROANOKE RAPIDS FAIR      68  64  88 SW8       29.97F
RALEIGH        PTCLDY    69  66  90 SW9       30.00S
ELIZABETH CITY CLEAR     70  70 100 SW10      29.98F
AHOSKIE*       CLEAR     68  64  86 S5        29.98F
EDENTON*       CLOUDY    72  69  92 CALM      30.00F
CURRITUCK*     CLEAR     71  68  92 S5        29.99R
KILL DEVIL HLS CLEAR     71  70  96 SW5       29.98S
MANTEO         CLEAR    N/A N/A N/A SW16      29.99F
CAPE HATTERAS  CLEAR     77  75  93 SW10      30.01F
TARBORO*       NOT AVBL
GOLDSBORO      CLEAR    N/A N/A N/A S5        30.00F
WASHINGTON     CLEAR     69  68  96 CALM      30.01S
GREENVILLE     CLEAR     68  68 100 SW3       30.02F
NEW BERN       CLEAR     68  68 100 S5        30.02F
WILMINGTON     CLEAR     68  67  96 CALM      30.02F
$$

VAZ048-160600-
ELSEWHERE

CITY           SKY/WX    TMP DP  RH WIND       PRES   REMARKS
HARRISBURG PA  LGT RAIN  63  58  83 NW7       29.90R
BALTIMORE      CLOUDY    71  67  87 W8        29.88R
ANNAPOLIS      CLOUDY    75  68  78 VRB6      29.87R
ANDREWS AFB    CLOUDY    70  66  85 SW5       29.89S
PHILADELPHIA   LGT RAIN  69  66  90 W8        29.85R
HENDERSON NC   CLEAR     67  63  86 SW8       29.99S
GREENSBORO     CLOUDY    70  67  90 SW12      29.99F
ROCKY MOUNT    CLEAR     69  66  90 S7        29.99F
$$

VAZ100-160600-
MARINE

STATION/POSITION TIME  TEMP    WIND        PRES    WAVE   SWELL
                       AIR SEA DIR/SP/G            HT/PER HT/PER
                 (UTC) (F)     (DEG/KT/KT) (MB)    (FT/S) (FT/S)
BRANDYWINE LGT   0442   73     230/ 23/ 28 1010.9F
CAPE MAY NJ      0448   72 70  240/ 17/ 19 1010.4F
LEWES DE         0448   72 70  240/  9/ 14 1010.9F
15NM E FENWICK I 0450   71 69  210/ 16/ 17 1012.0F   5/ 5   2/ 8
OCEAN-CITY-INLET 0448   73 70  260/ 14/ 16 1012.4F
WACHAPREAGUE VA  0442   73 71  230/  7/ 15 1013.2F
THOMAS POINT MD  0500   72 70  250/ 14/ 15   N/A
GOOSES REEF MD   0450   74     270/ 16/ 19 1011.8R
COVE POINT MD    0448   74     240/ 15/ 25 1012.2R
SOLOMONS ISLAND  0448   73 72  220/ 18/ 21 1011.3S
BISHOPS HEAD MD  0448   73 71  220/ 16/ 20 1012.2F
PINEY POINT MD   0448          240/  9/ 14   N/A
POTOMAC MD       0440   74     220/ 14/ 17 1011.5F
CAMBRIDGE MD     0448   72 71              1012.2S
LEWISETTA VA     0448   72 71  230/ 12/ 15 1012.2S
RAPPAHANNOCK LGT 0448          220/ 21/ 23 1013.6F
STINGRAY PT      0450   73     260/ 16/ 17 1013.4F
YORK RVR RNG VA  0448   73     250/ 16/ 19 1013.9F
YORKTOWN VA      0448   72 73  230/ 10/ 13 1013.4F
JAMESTOWN VA     0450          230/ 14/ 16   N/A
DOMINION TERM VA 0448   73     240/ 11/ 15 1014.3S
KIPTOPEKE VA     0448      72  240/ 16/ 20   N/A
CAPE HENRY VA    0448   72     210/ 10/ 16   N/A
WILLOUBY STN VA  0448   72     220/ 15/ 16 1013.9F
S CRANEY ISL VA  0448   72     210/  9/ 13 1013.9F
CAPE HENRY BUOY  0430      72                N/A     4/ 9
1ST LANDING BUOY 0430   73                 1013.9F
CAPE CHARLES BUO 0451      72                N/A     3/ 8
64NM E OF VA BCH 0450   73 71  220/ 17/ 21 1014.7F   5/ 5   2/ 8
DUCK PIER NC     0448   72 72  200/ 11/ 14 1014.7F
44100 DUCK FRF   0435      72                N/A     3/ 8
44056 DUCK FRF   0430      72                N/A     3/ 8
OREGON INLET NC  0442   75 76  200/ 16/ 19 1015.6F
HATTERAS NC      0448   76 78  220/  8/ 13 1016.2F
DIAMOND SHLS NC  0450   79 77  210/ 14/ 16 1016.0F   3/10   3/10
CAPE LOOKOUT NC  0500   75     200/  5/  6 1015.9F
$$




USA.gov is the U.S. government's official web portal to all federal, state and local government web resources and services.